This demonstration page uses our WeatherBlox Daily Observations layout. Learn more.

Left ArrowRight Arrow

44.8408, -93.29828

Hourly Observations for March 28, 2020

Temp ( °F °C ) Dew Point ( °F °C ) Humidity (%) Winds ( mph kmh ) Pressure ( in mb ) Visibility ( mi km ) Precip ( " mm )
12:53 am 00:53 Cloudy with Light Rain 48 8.9 42 5.6 80 80 E 8 13 29.81 1010 10 16 0.01 0.25
1:53 am 01:53 Cloudy 48 8.9 42 5.6 80 80 NE 6 9 29.80 1009 10 16 0.00 0.00
2:53 am 02:53 Cloudy 47 8.3 41 5 80 80 ENE 7 11 29.79 1009 10 16 0.00 0.00
3:53 am 03:53 Cloudy 46 7.8 41 5 83 83 ENE 7 11 29.77 1008 10 16 0.00 0.00
4:53 am 04:53 Cloudy 46 7.8 41 5 83 83 NE 8 13 29.75 1008 10 16 0.00 0.00
5:53 am 05:53 Cloudy 46 7.8 41 5 83 83 ENE 8 13 29.77 1008 10 16 0.00 0.00
6:53 am 06:53 Cloudy 45 7.2 41 5 86 86 ENE 9 15 29.77 1008 10 16 0.00 0.00
7:53 am 07:53 Cloudy 45 7.2 40 4.4 83 83 ENE 12 19 29.78 1008 10 16 0.00 0.00
8:53 am 08:53 Cloudy 46 7.8 40 4.4 79 79 ENE 14 22 29.75 1007 10 16 0.00 0.00
9:53 am 09:53 Cloudy 47 8.3 39 3.9 74 74 ENE 14 22 29.75 1007 10 16 0.00 0.00
10:12 am 10:12 Cloudy 47 8.3 40 4.4 77 77 ENE 15 24 29.76 1008 10 16 0.00 0.00
10:53 am 10:53 Cloudy 48 8.9 40 4.4 74 74 ENE 15 24 29.76 1008 10 16 0.00 0.00
11:53 am 11:53 Cloudy 48 8.9 40 4.4 74 74 ENE 16 26 29.73 1007 10 16 0.00 0.00
12:53 pm 12:53 Cloudy with Light Rain 46 7.8 42 5.6 86 86 ENE 15 24 29.72 1006 4 6 0.00 0.00
1:44 pm 13:44 Cloudy with Drizzle 45 7.2 42 5.6 90 90 ENE 16 26 29.71 1006 3 4 0.00 0.00
1:53 pm 13:53 Cloudy with Drizzle 45 7.2 42 5.6 90 90 ENE 16 26 29.69 1006 3 5 0.00 0.00
2:50 pm 14:50 Cloudy with Light Rain 45 7 43 6 93 93 NNE 12 19 29.68 1005 3 5 0.00 0.00
2:53 pm 14:53 Cloudy with Light Rain 45 7.2 42 5.6 90 90 NE 14 22 29.67 1005 3 4 0.00 0.00
3:04 pm 15:04 Cloudy with Light Rain 44 6.7 42 5.6 93 93 NE 13 20 29.67 1005 2 2 0.02 0.51
3:23 pm 15:23 Cloudy with Rain 44 6.7 42 5.6 93 93 NE 14 22 29.64 1004 2 3 0.07 1.78
3:31 pm 15:31 Cloudy with Rain 44 6.7 42 5.6 93 93 NE 17 28 29.63 1003 3 4 0.11 2.79
3:42 pm 15:42 Cloudy with Rain 44 6.7 41 5 89 89 NE 20 31 29.61 1003 2 3 0.16 4.06
3:53 pm 15:53 Cloudy with Light Rain 44 6.7 41 5 89 89 NE 20 31 29.59 1002 4 6 0.20 5.08
4:09 pm 16:09 Cloudy 44 6.7 41 5 89 89 NE 16 26 29.59 1002 10 16 0.00 0.00
4:41 pm 16:41 Cloudy with Light Rain 44 6.7 41 5 89 89 NE 23 37 29.54 1000 4 6 0.00 0.00
4:53 pm 16:53 Cloudy with Light Rain 44 6.7 41 5 89 89 NE 23 37 29.52 1000 2 3 0.01 0.25
5:05 pm 17:05 Cloudy with Light Rain 44 6.7 41 5 89 89 NE 21 33 29.52 1000 2 2 0.02 0.51
5:09 pm 17:09 Cloudy with Nearby Thunderstorms 43 6.1 41 5 93 93 NE 25 41 29.51 999 1 2 0.02 0.51
5:20 pm 17:20 Cloudy with Strong Thunderstorms 43 6.1 41 5 93 93 ENE 22 35 29.52 1000 1 2 0.07 1.78
5:33 pm 17:33 Cloudy with Strong Thunderstorms 43 6.1 40 4.4 89 89 ENE 25 41 29.49 999 2 3 0.21 5.33
5:35 pm 17:35 Cloudy with Heavy Rain 43 6.1 40 4.4 89 89 ENE 24 39 29.49 999 2 3 0.22 5.59
5:43 pm 17:43 Cloudy with Rain 43 6.1 40 4.4 89 89 ENE 24 39 29.49 999 4 6 0.22 5.59
5:48 pm 17:48 Cloudy with Rain 43 6 39 4 87 87 ENE 20 31 29.52 1000 2 3 0.24 6.10
5:51 pm 17:51 Cloudy with Strong Thunderstorms 43 6 39 4 87 87 ENE 18 30 29.53 1000 1 2 0.25 6.35
5:53 pm 17:53 Cloudy with Strong Thunderstorms 43 6.1 40 4.4 89 89 ENE 15 24 29.52 1000 1 2 0.26 6.60
6:00 pm 18:00 Cloudy with Strong Thunderstorms 43 6.1 40 4.4 89 89 NE 14 22 29.52 1000 2 3 0.05 1.27
6:09 pm 18:09 Cloudy with Nearby Thunderstorms 43 6.1 40 4.4 89 89 NE 20 31 29.51 999 3 4 0.08 2.03
6:11 pm 18:11 Cloudy with Heavy Rain 43 6.1 40 4.4 89 89 NE 21 33 29.51 999 2 3 0.09 2.29
6:23 pm 18:23 Cloudy with Nearby Thunderstorms 43 6.1 40 4.4 89 89 NE 22 35 29.49 999 3 4 0.15 3.81
6:32 pm 18:32 Cloudy with Nearby Thunderstorms 43 6.1 40 4.4 89 89 NE 18 30 29.50 999 5 8 0.18 4.57
6:47 pm 18:47 Cloudy with Light Rain 43 6 39 4 87 87 NE 18 30 29.50 999 6 10 0.21 5.33
6:53 pm 18:53 Cloudy with Light Rain 42 5.6 39 3.9 89 89 NNE 16 26 29.49 999 7 11 0.21 5.33
7:27 pm 19:27 Cloudy with Nearby Thunderstorms 41 5 39 3.9 93 93 NE 9 15 29.54 1000 3 5 0.12 3.05
7:35 pm 19:35 Cloudy with Nearby Thunderstorms 41 5 39 3.9 93 93 NNE 12 19 29.53 1000 3 4 0.16 4.06
7:43 pm 19:43 Cloudy with Nearby Thunderstorms 41 5 39 3.9 93 93 NNE 10 17 29.54 1000 3 5 0.20 5.08
7:53 pm 19:53 Cloudy with Rain 41 5 39 3.9 93 93 NNE 13 20 29.51 999 3 5 0.24 6.10
8:10 pm 20:10 Cloudy with Light Rain 41 5 39 3.9 93 93 NNE 14 22 29.52 1000 8 13 0.05 1.27
8:19 pm 20:19 Cloudy with Rain 40 4.4 38 3.3 93 93 NNE 14 22 29.51 999 6 10 0.06 1.52
8:32 pm 20:32 Cloudy with Light Rain 40 4.4 38 3.3 93 93 NNE 16 26 29.49 999 8 13 0.08 2.03
8:53 pm 20:53 Cloudy with Light Rain 40 4.4 37 2.8 89 89 NNE 15 24 29.47 998 10 16 0.09 2.29
9:43 pm 21:43 Cloudy with Light Rain 39 3.9 36 2.2 89 89 NNE 17 28 29.44 997 6 10 0.00 0.00
9:53 pm 21:53 Cloudy with Light Rain 39 3.9 37 2.8 93 93 NNE 15 24 29.43 997 9 14 0.00 0.00
10:32 pm 22:32 Cloudy with Light Rain 39 3.9 36 2.2 89 89 NNE 17 28 29.43 997 5 8 0.00 0.00
10:53 pm 22:53 Cloudy with Light Rain 39 3.9 36 2.2 89 89 NNE 16 26 29.39 995 5 8 0.01 0.25
11:53 pm 23:53 Cloudy with Drizzle 39 3.9 36 2.2 89 89 NNE 15 24 29.38 995 10 16 0.01 0.25

Powered by AerisWeather